Overview Statistics Trail Chart Weather Telemetry Raw packets
 

This is the latest recevied weather packets stored in our database for station/object W5DNT. If no packets are shown the sender has not sent any weather packets the latest 10 day(s).

<< 7 8 9 10 11 12 13 >>
Time Temp. Humidity Pressure Rain* Wind** Luminosity Snow
1788447658 28.89° C 70% 1011.4 hPa 0 mm - - -
1788446757 28.33° C 74% 1011.4 hPa 0 mm - - -
1788445850 27.78° C 77% 1011.3 hPa 0 mm - - -
1788444948 27.22° C 78% 1011.3 hPa 0 mm - - -
1788444046 26.11° C 81% 1011.5 hPa 0 mm - - -
1788443161 25.56° C 81% 1011.7 hPa 0 mm - - -
1788442250 25° C 82% 1011.6 hPa 0 mm - - -
1788441344 24.44° C 82% 1011.6 hPa 0 mm - - -
1788440446 - - 1011.6 hPa 0 mm - - -
1788439555 - - 1011.4 hPa 0 mm - - -
1788438634 - - 1011.3 hPa 0 mm - - -
1788437742 - - 1011 hPa 0 mm - - -
1788436826 - - 1011.1 hPa 0 mm - - -
1788435925 23.33° C 81% 1010.8 hPa 0 mm - - -
1788435023 23.33° C 81% 1011 hPa 0 mm - - -
1788434122 23.33° C 80% 1010.9 hPa 0 mm - - -
1788433221 23.89° C 78% 1010.8 hPa 0 mm - - -
1788432326 23.33° C 77% 1010.7 hPa 0 mm - - -
1788431420 23.89° C 76% 1010.6 hPa 0 mm - - -
1788430529 23.89° C 76% 1010.6 hPa 0 mm - - -
1788429624 23.89° C 77% 1010.5 hPa 0 mm - - -
1788428716 24.44° C 77% 1010.5 hPa 0 mm - - -
1788427814 24.44° C 78% 1010.6 hPa 0 mm - - -
1788426914 23.89° C 75% 1010.8 hPa 0 mm - - -
1788426011 24.44° C 75% 1010.9 hPa 0 mm - - -

* Rain latest hour (hover to see other rain measurements)
** Current wind speed in m/s (hover to see current wind gust speed)